sat.trackr.live / text

‹ back to catalog

ONEWEB-0710

NORAD 55173 · 2023-004AK

PAYLOAD ACTIVE UNKNOWN

§ Identity

Operator
Country
UK
Launch date
2023-01-10
Launch site
AFETR
Launch vehicle
Mass (kg)
RCS (m²)

Purposes: comms

External: N2YO · Heavens-Above · Gunter

§ Orbital elements

Epoch: 2026-09-20T04:47:54.313152Z

Period
109.29 min
Inclination
87.9200°
Eccentricity
0.0001892
Mean motion
13.17649833 rev/d
Perigee alt
1,192.3 km
Apogee alt
1,195.1 km
Semi-major
7,571.8 km
B*
5.7558e-5
RAAN
346.9985°
Arg perigee
106.2366°
Mean anomaly
253.8974°
Rev number
18,009

§ Raw data

ONEWEB-07101 55173U 23004AK  26263.19993418  .00000035  00000+0  57558-4 0  99942 55173  87.9200 346.9985 0001892 106.2366 253.8974 13.17649833180098

JSON: /api/v1/satellites/55173 · /tle

For live sub-satellite position, see the globe view (requires WebGL).

§ Visibility from observer

Set your observer location to see the next 7 days of passes ≥ 10°. The values pass through the URL so the page stays shareable.

No JS? Fill the form by hand. The geolocation button needs JavaScript.